This is the latest recevied weather packets stored in our database for station/object N9BSW. If no packets are shown the sender has not sent any weather packets the latest 10 day(s).
| Time | Temp. | Humidity | Pressure | Rain* | Wind** | Luminosity | Snow |
|---|---|---|---|---|---|---|---|
| 1777473581 | 13.33° C | 89% | 1011.8 hPa | 0 mm | - | 221 W/m² | - |
| 1777473277 | 13.89° C | 88% | 1011.9 hPa | 0 mm | - | 104 W/m² | - |
| 1777472972 | 13.89° C | 89% | 1011.9 hPa | 0 mm | - | 125 W/m² | - |
| 1777472669 | 13.89° C | 90% | 1011.9 hPa | 0 mm | - | 257 W/m² | - |
| 1777472366 | 13.89° C | 91% | 1011.9 hPa | 0 mm | - | 303 W/m² | - |
| 1777472064 | 13.89° C | 91% | 1012 hPa | 0 mm | - | 340 W/m² | - |
| 1777471759 | 13.33° C | 92% | 1011.9 hPa | 0 mm | - | 190 W/m² | - |
| 1777471455 | 13.33° C | 92% | 1011.8 hPa | 0 mm | - | 163 W/m² | - |
| 1777471152 | 13.33° C | 92% | 1012 hPa | 0 mm | - | 116 W/m² | - |
| 1777470849 | 13.33° C | 93% | 1011.9 hPa | 0 mm | - | 135 W/m² | - |
| 1777470546 | 13.33° C | 94% | 1012.1 hPa | 0 mm | - | 154 W/m² | - |
| 1777470242 | 12.78° C | 94% | 1012.1 hPa | 0 mm | - | 103 W/m² | - |
| 1777469938 | 12.78° C | 94% | 1012 hPa | 0 mm | - | 97 W/m² | - |
| 1777469634 | 12.78° C | 94% | 1012 hPa | 0 mm | - | 112 W/m² | - |
| 1777469330 | 12.78° C | 94% | 1011.9 hPa | 0 mm | - | 76 W/m² | - |
| 1777469025 | 12.78° C | 95% | 1012 hPa | 0 mm | - | 80 W/m² | - |
| 1777468720 | 12.78° C | 95% | 1011.6 hPa | 0 mm | - | 68 W/m² | - |
| 1777468417 | 12.78° C | 95% | 1011.9 hPa | 0 mm | - | 89 W/m² | - |
| 1777468113 | 12.78° C | 96% | 1011.7 hPa | 0 mm | - | 106 W/m² | - |
| 1777467810 | 12.78° C | 96% | 1011.8 hPa | 0 mm | - | 109 W/m² | - |
| 1777467505 | 12.78° C | 96% | 1011.6 hPa | 0 mm | - | 87 W/m² | - |
| 1777467200 | 12.78° C | 96% | 1011.6 hPa | 0 mm | - | 80 W/m² | - |
| 1777466897 | 12.78° C | 97% | 1011.5 hPa | 0 mm | - | 94 W/m² | - |
| 1777466595 | 12.78° C | 97% | 1011.2 hPa | 0 mm | - | 111 W/m² | - |
| 1777466292 | 12.22° C | 97% | 1011.3 hPa | 0 mm | - | 99 W/m² | - |
* Rain latest hour (hover to see other rain measurements)
** Current wind speed in m/s (hover to see current wind gust speed)